This is the latest recevied weather packets stored in our database for station/object VE6HFD-WX. If no packets are shown the sender has not sent any weather packets the latest 1 day(s).
| Time | Temp. | Humidity | Pressure | Rain* | Wind** | Luminosity | Snow |
|---|---|---|---|---|---|---|---|
| 1778000486 | 3.33° C | 59% | 1022.7 hPa | 0 mm | 4.47 m/s, 7° | - | - |
| 1778000186 | 3.33° C | 60% | 1022.7 hPa | 0 mm | 4.02 m/s, 10° | - | - |
| 1777999886 | 3.33° C | 62% | 1022.7 hPa | 0 mm | 5.36 m/s, 0° | - | - |
| 1777999556 | 2.78° C | 61% | 1022.7 hPa | 0 mm | 5.81 m/s, 355° | - | - |
| 1777999256 | 2.78° C | 61% | 1022.7 hPa | 0 mm | 5.36 m/s, 350° | - | - |
| 1777998956 | 2.78° C | 61% | 1022.7 hPa | 0 mm | 4.47 m/s, 13° | - | - |
| 1777998656 | 3.33° C | 61% | 1022.7 hPa | 0 mm | 4.47 m/s, 357° | - | - |
| 1777998326 | 2.78° C | 62% | 1022.7 hPa | 0 mm | 4.47 m/s, 6° | - | - |
| 1777998026 | 2.22° C | 62% | 1022.7 hPa | 0 mm | 3.58 m/s, 35° | - | - |
| 1777997696 | 2.22° C | 64% | 1022.6 hPa | 0 mm | 6.26 m/s, 7° | - | - |
| 1777997366 | 2.22° C | 66% | 1022.6 hPa | 0 mm | 4.47 m/s, 358° | - | - |
| 1777997036 | 1.67° C | 64% | 1022.6 hPa | 0 mm | 5.36 m/s, 354° | - | - |
| 1777996706 | 2.22° C | 66% | 1022.6 hPa | 0 mm | 5.36 m/s, 17° | - | - |
| 1777996406 | 1.67° C | 65% | 1022.6 hPa | 0 mm | 4.02 m/s, 341° | - | - |
| 1777996106 | 2.22° C | 65% | 1022.6 hPa | 0 mm | 3.58 m/s, 341° | - | - |
| 1777995806 | 1.67° C | 67% | 1022.6 hPa | 0 mm | 4.02 m/s, 13° | - | - |
| 1777995506 | 2.22° C | 67% | 1022.6 hPa | 0 mm | 4.02 m/s, 0° | - | - |
| 1777995176 | 1.67° C | 69% | 1022.6 hPa | 0 mm | 3.58 m/s, 20° | - | - |
| 1777994846 | 1.67° C | 68% | 1022.6 hPa | 0 mm | 3.13 m/s, 3° | - | - |
| 1777994546 | 1.67° C | 70% | 1022.7 hPa | 0 mm | 3.58 m/s, 12° | - | - |
| 1777994246 | 2.22° C | 72% | 1022.7 hPa | 0 mm | 4.02 m/s, 13° | - | - |
| 1777993916 | 1.11° C | 75% | 1022.7 hPa | 0 mm | 2.68 m/s, 23° | - | - |
| 1777993586 | 0.56° C | 75% | 1022.7 hPa | 0 mm | 3.13 m/s, 339° | - | - |
| 1777993256 | 0.56° C | 76% | 1022.7 hPa | 0 mm | 3.13 m/s, 16° | - | - |
| 1777992926 | 0.56° C | 76% | 1022.7 hPa | 0 mm | 3.13 m/s, 12° | - | - |
* Rain latest hour (hover to see other rain measurements)
** Current wind speed in m/s (hover to see current wind gust speed)